Theta_e
317 317 320 322 319 319 321 323 320 319 319 313 313 315 315 317 317 317 317 316 316 317 316 314 313 317 319 318 320 320 321 322 320 318 321 331 332 334 337 337 337 339 341 341 340 340 340 339 339 337 337 337 336 339 340 339 339 339 339 338 338 338 337 337 337 337 336 336 335 335 334 333 330 326 324 324 322 321 322 325 326 323 325 329 329 330 330 329 329 330 331 332 332 332 331 330 330
318 319 321 321 320 323 322 322 319 315 314 310 313 316 315 317 317 318 318 317 318 320 318 315 315 319 320 319 321 321 325 327 325 326 329 331 333 336 336 337 337 340 342 341 340 341 341 339 338 337 337 336 335 338 340 339 339 339 339 338 336 335 335 336 336 336 336 336 335 334 333 332 329 326 324 324 322 320 322 325 326 325 327 329 329 329 329 329 329 329 331 332 332 331 331 331 329
319 320 320 321 321 322 322 321 317 311 310 309 312 317 316 317 317 318 316 318 320 318 318 317 317 319 318 319 320 320 325 327 327 329 331 332 335 337 335 337 338 340 342 341 341 341 342 339 337 337 336 336 335 338 340 339 340 339 339 338 335 332 332 335 335 335 336 335 335 334 333 331 328 326 325 323 322 319 319 323 325 326 329 329 328 329 329 329 329 329 330 330 331 331 329 328 326
319 320 320 324 323 321 323 320 317 311 309 308 311 316 317 318 317 316 316 319 319 315 316 318 319 318 318 320 320 321 325 326 328 330 331 333 335 336 335 336 338 340 341 341 341 341 342 339 337 336 336 336 335 337 339 340 339 339 339 337 335 330 329 334 334 334 335 335 334 333 332 332 328 326 325 323 323 319 316 318 321 325 329 329 328 328 328 329 329 330 330 330 330 330 328 327 326
319 320 320 326 324 321 322 319 318 313 311 311 312 316 317 317 316 316 317 319 317 315 315 317 321 319 320 322 321 322 324 324 327 329 332 334 333 334 334 335 339 340 341 341 342 342 341 339 337 335 336 336 335 336 338 339 339 339 338 337 333 326 327 334 335 333 334 334 333 332 332 331 328 326 325 324 323 320 315 313 318 325 328 328 328 327 328 328 329 330 331 331 330 329 328 327 327
318 319 318 322 321 319 320 316 314 313 314 316 315 316 317 316 316 317 317 318 316 314 313 315 318 319 322 324 323 325 325 326 327 329 331 334 333 334 334 335 339 340 341 342 342 342 341 338 337 336 336 336 335 335 337 338 338 338 338 337 332 323 324 332 334 334 333 333 332 331 331 330 328 328 326 325 323 320 315 309 312 323 327 328 328 327 327 328 328 329 329 329 329 328 326 325 325
319 321 321 321 319 320 319 314 313 315 315 315 316 316 316 316 316 317 317 317 315 312 312 314 317 318 320 321 322 326 326 328 329 330 330 333 335 336 336 335 339 341 341 342 342 342 341 338 337 337 337 336 335 335 337 337 338 337 337 336 330 322 323 329 332 334 333 331 331 330 331 329 329 329 327 326 323 320 315 308 306 315 324 327 328 328 327 327 327 327 327 327 327 325 324 323 324
320 321 322 323 321 321 319 315 315 316 314 312 314 315 315 315 315 317 317 317 315 314 314 316 316 316 319 319 321 326 324 327 329 330 329 332 335 337 337 337 340 341 341 342 342 342 340 339 338 338 337 337 335 336 337 337 337 337 337 335 327 320 322 326 329 333 332 330 331 331 331 330 329 330 328 326 324 320 316 309 305 312 321 325 327 327 327 327 326 326 325 324 323 322 322 324 325
318 319 321 322 320 319 317 316 316 316 315 313 313 313 314 314 313 316 317 315 314 314 316 317 314 314 318 319 320 324 323 325 327 329 330 333 335 337 338 339 341 341 341 342 341 341 340 340 338 338 338 338 336 336 337 336 337 337 337 335 331 326 325 325 326 329 329 330 332 332 332 332 331 331 329 327 324 321 317 309 305 311 318 322 324 325 325 326 325 324 322 320 320 320 322 324 324
319 319 321 322 318 316 314 314 316 316 315 314 313 313 313 313 311 313 316 316 314 314 316 314 312 314 317 319 320 321 323 325 327 331 331 333 335 337 338 339 342 341 341 341 341 340 340 340 338 339 338 338 337 337 337 336 336 336 337 336 335 334 331 327 325 325 326 330 332 332 332 332 333 332 331 328 325 321 318 311 305 306 310 314 318 322 324 324 323 321 317 314 314 315 317 319 321
320 319 321 321 315 312 312 313 316 316 315 314 313 312 312 313 312 312 313 313 313 314 316 313 314 316 316 318 319 318 321 324 328 332 330 333 334 336 338 339 341 341 341 341 341 341 341 340 339 338 338 339 338 338 338 336 335 336 337 337 337 336 335 332 329 326 324 328 332 332 332 333 333 333 332 329 326 323 319 314 310 308 307 306 308 312 315 316 315 312 308 305 304 304 306 309 312
320 321 321 318 314 314 314 315 316 317 316 314 314 313 311 312 312 313 313 313 313 314 316 315 316 317 316 318 317 316 318 325 330 331 331 332 333 335 336 338 340 340 341 340 340 341 341 340 339 339 339 340 338 339 338 336 335 335 336 337 337 337 336 335 332 329 325 326 330 333 332 333 333 334 333 330 327 324 321 318 315 313 311 308 305 305 305 306 305 303 301 300 300 299 299 300 303
322 323 321 316 316 318 317 316 316 317 316 315 315 311 310 312 313 314 313 313 314 315 316 314 315 315 316 317 315 314 318 326 330 330 331 332 332 334 336 337 339 339 339 339 339 339 341 340 339 339 340 340 338 339 338 336 335 335 336 336 337 337 336 336 334 331 328 327 330 332 333 333 333 333 333 331 329 325 322 321 319 318 316 312 308 305 305 304 304 303 302 300 299 299 299 299 301
321 322 321 318 316 318 317 316 315 315 315 315 314 309 309 311 312 312 313 314 314 314 313 311 314 315 316 316 315 315 318 326 330 331 330 332 332 333 335 338 340 339 337 337 338 338 340 341 338 338 339 340 339 339 339 337 336 335 335 336 337 336 336 336 335 333 331 330 330 331 332 332 333 333 333 331 330 327 323 322 321 321 319 317 314 312 311 311 311 310 308 305 302 300 299 299 300
318 319 321 319 316 316 316 317 317 315 315 315 312 309 309 310 309 310 312 314 314 311 310 310 311 314 316 315 316 315 318 325 329 331 330 331 332 332 335 338 339 337 336 338 338 337 339 341 340 339 339 340 340 340 339 338 337 336 335 336 336 336 336 336 335 334 332 332 331 331 332 332 332 333 333 332 330 328 324 323 322 322 321 320 319 317 317 317 317 316 314 311 308 306 303 300 300
316 319 321 319 316 316 316 317 317 315 315 314 310 308 312 310 308 310 311 311 312 310 310 312 311 312 314 313 315 311 314 324 327 330 330 329 331 332 334 337 336 334 334 337 337 336 336 338 338 339 339 339 340 340 339 338 337 336 336 336 336 337 337 336 336 335 334 333 333 332 332 332 332 332 333 332 331 329 326 324 323 323 322 321 320 320 319 319 318 317 316 315 313 311 307 303 301
315 320 320 317 316 316 316 317 316 315 316 314 309 309 313 313 308 309 309 309 312 312 311 313 311 310 312 312 312 308 313 322 325 328 329 329 330 331 333 334 334 333 332 334 334 334 335 336 336 337 338 339 340 340 339 338 338 337 337 336 336 337 337 336 336 336 335 334 334 332 332 332 332 333 332 332 331 329 326 324 323 323 323 322 321 320 320 320 319 318 317 316 314 313 312 308 304
317 320 317 314 316 317 317 318 315 316 316 314 311 311 314 314 311 310 310 311 312 312 311 312 311 311 312 310 310 309 313 321 324 327 330 330 331 331 332 332 333 332 331 332 333 333 334 334 334 335 336 338 339 338 338 338 338 338 338 337 336 337 336 336 336 336 335 335 334 333 333 333 332 333 332 332 331 329 327 324 324 324 324 323 322 321 320 320 319 318 317 317 316 315 314 312 308
317 319 315 315 319 317 315 317 314 315 316 314 312 310 312 314 313 311 312 314 313 313 314 313 312 313 313 311 310 311 315 322 323 327 330 330 331 331 332 332 332 332 330 330 331 332 333 333 334 335 335 335 336 336 337 338 338 338 339 338 337 337 336 335 336 336 336 335 335 334 334 333 333 333 332 331 331 329 327 325 324 324 324 323 323 321 320 320 319 318 317 317 317 316 315 313 312
314 316 315 316 318 315 313 314 313 312 313 314 312 309 311 312 312 311 313 315 313 314 315 314 314 314 314 313 313 314 318 322 322 327 330 330 332 331 331 331 331 332 330 330 331 332 333 334 335 335 335 335 336 336 335 336 337 338 339 338 338 337 336 335 336 336 336 335 335 335 334 333 333 332 331 331 331 330 327 325 325 324 324 324 323 322 320 320 319 318 318 318 318 317 316 315 314
314 314 315 315 314 315 313 311 311 309 310 313 312 310 311 311 310 312 313 314 314 315 315 315 315 315 315 315 314 316 319 321 322 326 328 330 331 331 331 331 331 331 331 332 332 333 333 335 335 335 335 335 336 336 335 334 333 335 338 338 338 337 337 336 336 336 336 335 335 335 334 333 333 332 331 330 331 330 327 326 326 324 324 324 323 322 320 319 319 318 319 319 318 318 317 316 315
314 313 313 312 311 315 312 309 309 308 309 311 312 312 312 311 310 312 313 315 315 315 315 315 315 314 314 315 315 317 320 322 323 324 327 329 329 330 331 330 330 330 331 333 332 333 334 334 334 334 334 334 334 334 333 333 332 333 335 337 337 337 337 337 336 336 336 335 335 335 334 333 332 332 332 331 330 330 328 327 327 325 324 323 322 322 320 319 320 319 319 319 318 318 317 316 315
315 313 311 310 310 313 311 308 309 307 310 312 312 312 311 311 313 311 311 314 315 313 312 312 312 310 311 315 316 316 319 322 323 324 326 327 327 327 327 327 328 329 331 332 330 332 333 332 332 332 332 332 333 332 331 332 334 335 335 335 336 337 337 337 336 336 336 336 335 334 333 332 332 332 331 331 331 330 329 328 327 326 325 324 322 322 321 320 320 319 320 319 318 317 316 315 314
315 315 312 310 309 310 309 307 307 306 310 311 310 311 311 313 313 310 310 314 314 311 309 309 310 308 309 314 315 316 319 322 323 324 324 325 326 325 324 324 325 327 328 329 330 331 331 331 331 330 329 329 330 332 331 331 334 336 335 336 336 337 337 337 337 336 336 336 334 334 333 332 332 332 331 330 331 331 330 329 328 326 325 324 323 323 322 321 320 320 320 319 317 317 316 315 313
315 315 312 310 309 310 308 306 306 307 309 308 308 311 312 311 310 309 311 314 313 312 310 310 310 308 309 312 314 316 318 320 322 323 323 322 322 322 322 323 323 325 326 327 328 328 328 329 329 328 326 325 325 328 330 331 332 334 334 335 336 337 337 336 336 336 335 335 334 333 333 332 332 332 332 330 330 330 330 329 327 325 325 324 323 323 322 322 321 320 319 318 317 316 315 314 312
314 313 312 312 311 310 308 307 308 308 309 308 311 313 311 308 308 311 314 314 313 311 310 310 310 310 310 311 313 316 317 319 321 321 322 319 319 319 320 321 322 323 323 323 324 324 325 325 325 324 323 324 323 324 328 330 330 332 332 332 335 337 337 336 336 335 334 334 333 333 334 333 332 332 331 331 330 330 330 329 326 325 324 323 322 322 321 322 321 319 319 318 316 315 314 313 311
311 312 313 313 312 310 309 311 310 309 310 309 312 314 311 309 310 315 315 312 309 310 310 310 310 311 311 311 312 315 316 317 318 319 319 318 317 318 318 319 319 320 320 320 321 321 321 320 320 319 320 321 321 323 326 329 329 330 331 331 332 335 336 335 335 335 334 333 331 332 334 333 332 332 331 331 329 329 330 329 327 325 324 323 322 322 321 321 320 319 318 317 316 314 310 310 309
311 311 314 314 312 312 311 312 311 311 312 309 312 314 311 310 311 316 315 308 307 310 311 310 310 312 312 312 311 313 315 315 316 316 317 318 317 317 317 318 317 317 317 317 317 316 317 316 315 315 314 315 316 318 323 327 327 328 329 329 329 333 335 333 333 333 332 332 332 333 333 332 332 331 331 331 329 329 329 329 327 325 325 323 323 322 321 320 320 319 317 317 316 312 308 307 308
311 312 316 316 315 315 312 312 310 311 313 309 311 314 314 314 313 316 313 307 308 310 312 311 311 312 312 312 311 312 314 313 314 314 316 317 317 317 317 318 317 316 316 316 315 315 315 314 313 313 311 312 312 313 319 324 326 327 327 326 326 331 334 332 332 332 330 330 332 333 333 332 332 331 331 330 328 329 329 328 327 326 326 324 323 322 321 320 319 318 317 316 315 312 307 306 307
313 313 315 316 316 316 313 311 309 312 312 308 311 314 316 317 316 316 312 308 310 311 313 313 312 312 312 312 311 311 313 313 313 313 314 315 316 316 316 317 317 317 316 315 315 315 314 313 313 312 311 314 314 315 319 322 324 326 326 325 327 329 332 332 332 331 329 330 331 332 332 332 332 331 330 329 328 329 329 328 327 326 326 325 322 321 320 320 319 319 317 315 313 309 306 306 305
314 313 315 316 314 314 314 311 311 314 311 308 312 313 316 319 317 315 309 307 309 312 314 314 313 312 311 312 311 311 313 313 313 312 313 313 313 314 315 316 316 317 316 315 315 314 314 313 312 312 313 316 317 318 320 321 322 324 325 326 328 330 330 331 331 330 329 331 332 331 332 331 331 331 330 329 328 329 329 328 327 327 326 324 322 320 320 319 319 317 316 315 311 306 305 305 304
314 312 314 316 313 314 315 310 310 314 311 309 313 314 316 318 317 312 307 306 308 311 313 313 313 312 311 311 311 311 312 312 312 311 312 311 312 312 313 314 315 316 315 315 314 313 313 312 310 313 315 316 317 319 319 320 322 323 324 326 328 329 328 329 329 330 330 332 331 330 330 329 328 329 330 329 328 328 328 328 328 326 324 323 321 320 320 319 319 317 315 315 311 306 305 303 301
315 313 313 316 314 314 315 311 308 311 311 311 312 314 316 317 315 311 306 307 308 310 313 313 313 312 311 311 310 311 311 312 312 311 310 310 311 311 312 313 313 314 314 314 313 312 312 311 310 314 316 316 317 318 319 321 322 322 324 326 327 327 327 328 329 329 330 330 330 330 328 326 326 328 329 328 327 327 327 327 326 324 322 321 321 320 320 319 318 317 313 312 312 308 304 301 298
315 315 314 315 315 313 313 313 310 308 311 313 313 313 316 316 315 313 311 308 309 311 313 314 314 313 312 312 311 310 311 311 312 312 311 309 310 310 311 312 312 313 313 313 312 312 312 311 311 314 316 315 316 319 320 322 322 322 324 324 325 326 327 327 328 327 328 328 329 329 327 325 326 328 328 327 327 326 326 325 324 323 321 321 320 319 319 318 317 316 313 310 310 308 303 299 296
313 314 314 314 314 313 314 314 312 309 311 314 314 314 315 316 316 315 314 312 310 311 312 313 314 313 313 312 311 311 311 311 312 313 311 309 309 309 310 311 311 312 312 312 312 311 311 311 311 314 315 315 316 319 320 321 322 322 322 322 323 326 326 325 325 325 325 326 327 328 327 326 327 328 327 326 325 325 324 324 323 322 321 321 320 319 318 317 315 314 314 310 306 305 301 298 295
314 316 315 314 313 313 315 315 311 310 313 314 315 315 316 316 316 316 315 314 312 311 312 312 313 312 312 312 312 312 312 312 312 312 310 309 308 308 309 309 310 311 311 311 311 311 311 311 312 314 315 316 316 318 319 320 322 322 321 321 323 324 324 324 323 323 324 325 326 327 326 325 326 327 326 325 325 324 323 323 322 321 321 321 320 319 318 317 315 313 313 310 306 302 298 296 295
316 317 316 316 315 313 315 315 310 308 313 316 316 316 316 316 316 316 316 315 313 312 312 312 312 313 313 313 313 313 313 313 313 310 309 308 307 307 307 308 310 311 311 311 311 311 311 311 313 314 315 316 316 317 319 319 320 321 319 321 322 322 322 323 323 323 325 325 326 326 324 324 325 326 325 324 324 323 322 322 322 320 320 321 319 319 317 315 315 314 312 308 306 301 295 293 294
315 315 315 316 316 315 315 313 310 308 312 316 315 315 316 316 316 316 316 315 314 314 313 313 314 314 314 314 314 314 314 314 313 310 309 308 307 306 306 308 310 311 312 311 311 311 311 311 312 313 314 316 317 317 318 318 320 321 319 320 321 320 321 323 323 323 325 325 325 324 322 322 324 324 324 324 323 322 322 322 321 321 320 319 318 317 316 315 314 314 311 305 301 299 295 293 293
315 316 316 315 315 316 313 311 310 309 312 315 315 314 315 315 316 316 315 315 315 315 315 315 315 315 315 315 315 315 315 314 313 311 309 308 307 306 306 308 310 311 312 311 311 311 311 311 312 312 314 315 316 317 317 318 319 321 320 320 320 320 320 321 321 322 323 324 323 322 321 321 322 323 323 322 322 321 321 321 321 320 319 317 317 316 315 314 313 312 310 304 299 295 294 293 293
316 317 315 315 317 316 311 311 311 310 311 313 314 314 315 316 316 316 316 315 315 315 315 315 315 314 315 315 316 315 315 315 314 312 310 308 307 306 307 308 310 311 312 311 311 311 310 311 311 311 313 314 315 317 318 318 318 319 319 320 320 320 320 319 319 319 321 322 321 321 322 322 322 322 322 321 320 320 319 320 320 319 318 316 316 316 314 313 312 309 307 305 301 295 292 292 294
317 317 316 316 317 316 312 313 312 312 311 311 313 314 315 317 317 318 317 315 314 314 314 314 314 314 314 314 315 314 314 315 315 313 311 309 307 307 307 308 310 311 312 311 311 311 311 310 310 311 312 314 315 317 317 317 317 316 316 316 316 316 316 315 314 315 318 319 319 321 321 321 322 322 321 319 319 319 318 319 319 319 318 315 315 315 314 312 311 309 306 305 303 299 295 293 294
316 317 317 316 315 316 315 315 315 314 314 313 313 313 314 316 316 318 318 317 316 315 315 315 315 315 314 313 314 314 314 314 313 313 312 310 308 307 307 308 310 311 312 311 311 311 310 310 310 310 312 313 314 316 316 316 316 315 315 314 312 311 309 309 312 315 317 318 319 321 320 320 321 320 319 318 319 319 318 319 319 318 317 314 313 313 313 311 309 307 306 305 303 301 298 295 294
315 316 316 315 315 316 316 316 315 314 314 314 314 314 314 316 315 317 319 318 318 317 317 317 317 316 315 315 315 315 314 314 313 312 311 310 309 307 307 308 309 311 311 311 311 311 310 310 309 310 312 313 314 315 315 315 316 315 316 316 315 313 311 311 315 318 319 319 319 320 319 319 319 319 318 317 318 319 318 318 317 316 314 312 312 311 310 310 308 306 306 304 302 300 299 297 296
316 317 316 314 314 316 316 316 316 316 316 315 315 316 316 317 316 317 317 316 317 317 317 318 319 318 316 316 315 316 315 315 314 312 310 309 309 308 307 308 309 310 311 311 311 310 310 309 308 309 312 313 313 315 315 314 315 315 315 316 316 315 316 316 317 317 318 319 319 318 318 318 318 317 317 317 318 317 316 316 313 310 308 307 308 309 308 308 307 306 305 303 302 300 300 299 298
316 313 312 313 315 316 316 317 317 316 316 316 317 317 315 316 316 316 316 316 316 316 317 318 320 319 317 316 316 315 315 314 313 312 311 310 309 308 307 307 308 310 310 310 310 310 310 309 308 308 310 312 312 314 314 313 314 315 314 313 312 312 314 315 316 317 317 317 317 317 317 317 316 316 316 316 317 316 313 311 308 304 303 303 305 306 306 306 306 305 304 303 301 300 300 300 300
313 310 312 313 314 315 315 317 317 317 316 317 319 316 313 312 314 315 314 316 317 316 317 319 319 319 319 318 316 315 313 311 311 310 310 310 308 307 307 307 308 309 310 310 310 309 309 309 308 308 308 309 311 313 313 312 313 314 313 313 312 311 310 311 312 313 314 315 315 315 314 315 315 315 316 316 315 312 308 306 303 301 301 302 303 304 305 305 305 305 304 302 301 300 300 300 300
312 314 316 316 315 315 316 316 316 317 318 318 318 316 313 311 314 317 316 316 317 317 317 318 319 320 324 323 317 314 312 309 308 307 307 308 307 306 306 306 307 308 309 309 309 309 309 308 308 307 307 307 309 311 311 312 312 312 312 312 313 311 310 310 310 310 310 311 312 312 312 313 314 315 315 314 310 306 303 301 300 300 301 301 302 303 304 305 304 304 303 302 301 300 300 300 299
313 318 319 317 316 315 316 316 317 318 317 316 315 316 316 313 313 316 316 315 315 316 317 317 318 320 325 326 319 313 311 310 308 306 306 305 305 305 305 305 307 308 309 309 309 308 308 308 307 307 306 305 306 308 309 311 311 311 311 311 310 310 311 311 312 312 312 312 312 311 311 311 312 314 314 310 304 300 299 298 299 300 301 301 302 303 304 304 304 303 302 301 300 300 300 300 299
315 318 317 315 314 315 317 318 318 318 317 313 311 314 317 315 314 316 316 315 315 315 315 315 317 317 319 322 320 315 313 312 309 307 306 305 305 305 305 305 306 307 309 309 308 308 308 308 307 307 306 305 305 307 308 309 310 310 310 309 308 309 311 312 314 315 315 314 313 311 310 310 311 312 312 306 299 297 296 296 298 299 300 301 301 302 303 303 303 302 301 301 300 300 299 297 297
315 318 317 315 314 315 316 316 314 314 314 310 309 314 317 316 315 316 316 316 316 316 316 316 316 316 316 317 317 316 314 312 310 308 306 305 306 306 305 305 306 308 308 308 308 308 307 307 307 307 307 305 305 306 306 307 308 308 309 309 308 309 310 312 313 315 315 314 313 312 313 312 312 313 310 303 298 296 294 294 296 297 298 299 301 302 302 302 302 301 300 299 298 296 294 293 293
316 318 317 315 315 315 314 314 312 312 313 310 308 314 318 317 316 316 315 315 316 315 315 316 315 314 315 314 314 314 312 310 310 310 307 306 306 306 305 305 306 307 308 308 308 307 307 307 306 307 307 305 304 304 304 305 306 306 307 308 309 310 310 311 312 312 313 313 313 314 314 313 313 313 310 304 298 294 293 293 293 294 295 297 299 300 300 300 299 297 296 294 293 291 290 290 289
316 316 315 316 316 312 311 312 312 312 313 313 311 314 316 315 316 315 314 315 317 316 313 313 314 315 314 315 316 315 311 309 310 310 308 306 306 305 305 305 306 307 307 307 308 307 307 307 306 307 306 305 304 303 302 303 305 305 306 307 308 309 309 309 309 308 309 312 313 313 314 314 313 311 309 304 297 292 292 292 292 292 292 293 294 294 294 293 292 291 291 290 289 289 289 289 288
314 315 315 315 316 314 312 312 310 310 313 314 314 314 313 313 314 314 314 316 317 316 314 314 315 317 316 317 319 316 313 311 311 310 310 307 306 304 304 305 306 307 307 307 307 307 307 307 306 306 306 304 304 303 301 302 304 304 304 305 306 307 307 307 307 309 311 313 312 310 311 312 311 310 309 303 295 291 291 291 291 290 290 290 290 290 290 290 289 289 289 289 289 289 288 288 288
314 315 316 314 314 315 313 313 314 313 315 315 315 315 313 312 314 315 316 316 315 315 315 315 316 318 317 319 321 318 314 313 311 309 308 306 305 304 303 304 305 306 307 307 307 307 307 307 305 306 306 304 304 304 302 301 303 303 303 304 304 305 306 306 307 310 311 312 309 307 307 308 307 307 306 300 293 291 290 290 290 290 290 289 289 289 289 289 289 289 289 289 289 288 288 288 287
313 314 316 314 315 316 314 314 315 316 316 316 316 315 313 313 315 315 316 317 316 316 316 316 316 316 317 319 321 319 316 314 314 312 307 304 305 304 303 303 304 305 306 306 307 306 306 307 305 306 306 304 303 303 301 300 302 303 303 304 304 304 305 305 307 308 308 309 308 306 306 305 304 304 302 296 292 291 290 289 290 289 289 289 289 289 289 289 289 289 288 288 288 288 287 287 286
312 312 314 313 314 316 316 314 314 315 316 315 316 315 313 314 316 314 314 316 316 316 318 319 317 317 318 320 320 319 317 316 319 317 309 304 304 303 302 303 303 304 305 305 306 306 306 306 305 305 305 304 302 302 300 299 301 302 302 303 303 303 304 305 306 306 307 307 306 304 305 304 302 300 297 293 291 290 290 289 289 289 289 288 288 288 288 288 288 288 288 288 287 287 287 286 286
313 314 315 314 313 314 314 314 313 313 314 314 315 315 313 314 318 316 314 315 316 317 319 320 321 320 321 320 317 315 315 317 320 317 309 305 304 303 302 302 302 303 304 305 305 305 305 305 304 304 305 303 301 300 300 299 300 301 301 301 301 302 303 303 303 304 305 305 303 302 303 302 300 297 293 291 291 290 289 289 289 288 288 288 288 288 288 288 288 288 287 287 287 287 286 286 286
316 315 316 315 315 314 315 316 314 312 314 314 315 315 314 315 318 316 314 315 316 319 319 319 322 323 322 319 316 314 315 316 315 310 305 303 303 302 301 301 301 302 303 304 304 304 304 304 304 303 304 302 301 300 300 299 300 300 300 300 301 301 301 301 301 303 302 301 299 299 300 300 297 294 292 290 290 290 289 289 289 288 288 288 288 288 287 287 287 287 287 286 286 286 286 286 286
Wind_Speed
2 1 3 4 5 3 0 2 0 1 1 1 2 1 3 1 2 1 4 3 2 2 1 1 3 4 2 1 2 3 3 1 2 2 1 4 4 6 6 6 10 12 12 11 11 12 12 12 13 11 10 10 12 13 12 13 13 13 13 13 13 13 13 13 13 13 13 14 14 14 14 15 16 16 16 17 18 19 19 20 20 20 21 22 21 21 20 20 19 18 18 17 17 18 18 18 19
0 2 4 5 3 3 0 1 1 1 1 1 2 1 3 2 1 4 5 2 1 4 2 3 5 3 2 3 2 1 2 2 4 2 3 5 7 6 5 6 10 12 11 11 11 11 11 11 13 12 11 11 13 13 13 13 13 12 12 12 12 12 12 12 12 12 13 13 13 13 13 14 16 16 16 16 17 18 19 19 20 20 21 21 21 21 20 20 20 20 19 18 18 18 18 18 18
1 4 6 4 2 1 1 1 1 1 1 1 2 3 3 4 4 3 2 3 6 5 4 5 4 2 2 3 2 2 1 3 2 2 4 6 8 6 4 6 11 12 10 11 11 10 10 11 12 12 11 11 13 13 12 12 12 12 11 11 10 11 12 12 12 12 12 13 13 13 13 14 15 15 16 16 17 17 18 19 20 20 21 21 21 21 21 21 21 21 20 19 18 18 17 17 18
2 6 6 3 1 1 0 0 1 1 0 1 1 4 4 4 4 4 5 6 7 3 3 4 3 1 4 4 1 0 1 3 2 2 4 5 4 5 5 7 11 11 11 12 11 10 10 12 12 12 11 11 12 13 12 11 12 11 10 9 9 9 11 12 12 12 12 12 12 12 12 13 14 15 15 15 17 17 17 19 19 20 21 21 21 21 21 21 21 21 19 19 19 18 17 18 18
3 4 6 5 2 1 1 1 1 2 2 1 1 4 5 4 5 6 6 6 5 1 1 1 2 2 2 1 1 1 3 4 3 1 2 4 3 5 6 7 10 11 13 12 11 10 10 13 13 12 11 10 11 12 12 11 11 10 9 8 8 8 11 11 12 12 12 11 11 12 12 12 14 14 15 16 17 17 17 18 19 20 21 21 21 21 21 21 20 20 19 19 19 18 18 18 19
6 5 3 2 1 1 1 1 1 0 3 1 1 4 6 4 6 8 8 5 3 2 1 2 1 2 2 2 1 2 2 2 4 4 3 4 4 6 8 9 10 12 13 12 12 11 12 14 13 13 12 11 12 12 12 11 10 10 9 8 7 8 10 12 12 12 11 11 11 11 11 12 13 13 14 16 17 17 17 17 19 20 21 21 20 20 20 20 20 19 19 18 18 18 17 17 18
2 2 4 5 3 1 1 1 1 1 3 2 3 3 6 5 6 9 9 6 4 3 3 2 1 2 1 2 2 0 0 0 3 4 4 5 7 7 9 10 11 13 12 13 13 12 14 16 15 14 13 12 12 13 12 11 10 10 9 7 7 8 10 11 12 11 11 11 10 11 11 11 12 13 14 16 17 17 17 17 18 19 20 21 21 20 20 20 20 19 19 17 17 17 17 18 18
1 0 1 1 2 1 0 2 1 1 2 1 2 1 2 5 6 8 9 5 3 2 2 3 2 3 2 1 1 3 2 2 2 5 6 7 8 8 10 11 11 13 12 12 13 14 16 16 16 15 14 13 12 13 12 11 10 10 9 7 7 9 10 11 12 11 11 11 10 10 11 11 12 13 14 16 17 17 17 17 18 19 20 20 21 21 20 20 20 19 19 18 17 17 18 18 18
3 2 1 1 2 1 1 1 1 1 1 1 2 1 0 2 4 5 8 4 1 2 2 3 3 2 3 3 1 4 4 4 4 6 7 8 8 7 10 11 10 12 12 11 12 14 16 16 17 16 15 13 13 13 11 11 11 10 10 8 8 9 9 10 11 11 12 12 11 10 11 11 12 13 14 16 16 17 17 17 18 19 19 19 20 20 20 20 20 19 19 18 18 18 18 17 17
2 2 1 2 1 2 2 1 1 1 1 1 2 2 2 4 4 4 6 4 1 2 2 2 2 2 1 4 2 3 5 7 6 6 7 8 8 8 9 11 11 11 12 11 11 13 15 17 17 16 16 14 14 13 12 12 11 11 11 10 10 9 9 9 10 10 11 13 11 10 11 11 11 12 13 14 15 16 17 17 18 19 19 19 19 20 20 19 19 19 19 19 19 18 17 16 16
0 2 0 2 2 2 2 2 2 1 2 1 2 3 3 5 5 4 4 3 2 2 3 3 3 3 2 2 2 3 7 10 8 7 9 8 7 8 10 13 14 11 12 13 11 11 12 15 16 16 15 15 14 13 13 13 12 12 12 11 11 11 10 9 10 10 10 13 12 11 11 11 11 11 12 13 14 16 17 17 18 19 19 19 19 19 20 20 20 20 20 20 20 20 19 18 17
1 2 1 3 2 1 1 2 3 2 2 2 4 5 3 6 6 6 6 3 4 4 5 6 2 1 3 2 2 5 8 9 9 9 10 9 8 10 12 14 14 11 11 13 13 11 10 11 13 15 15 15 15 14 14 14 14 13 12 12 12 12 11 10 10 10 10 12 13 11 11 11 11 11 12 13 14 15 16 17 18 19 19 19 20 19 20 20 20 20 20 21 21 21 21 21 20
1 2 3 3 1 0 2 2 2 1 2 4 4 5 4 8 7 6 6 3 4 6 4 5 1 1 3 1 3 5 8 10 10 11 9 9 9 12 14 14 13 13 13 13 14 13 11 12 12 12 13 15 15 14 14 15 15 14 13 13 12 12 11 11 10 10 10 11 12 11 11 11 11 11 11 13 13 14 15 16 17 17 18 19 19 19 20 20 20 20 21 21 22 22 22 22 21
0 1 1 2 1 1 2 1 3 3 4 4 4 5 5 5 3 2 4 6 6 4 1 1 1 2 2 1 4 4 8 12 13 12 10 9 9 12 14 14 13 13 13 12 14 14 13 13 14 14 14 15 15 14 14 15 16 15 14 14 13 13 12 12 11 11 11 11 12 12 11 11 11 10 11 12 13 13 14 15 15 16 17 18 18 19 19 19 20 20 21 21 21 22 22 21 22
0 1 1 3 2 2 2 0 2 5 3 6 5 5 6 2 1 2 4 6 3 3 2 1 1 2 1 2 3 3 8 14 14 13 11 9 9 11 12 13 13 13 13 12 14 16 14 12 13 15 14 14 16 16 16 15 16 16 15 14 13 13 13 12 12 12 11 11 12 12 11 11 11 11 11 12 12 13 14 14 15 15 16 17 18 19 19 19 19 20 20 21 22 22 22 22 22
0 2 1 3 3 2 3 1 2 4 3 6 4 3 7 3 1 3 1 3 1 3 1 3 3 2 2 1 3 5 8 13 13 14 12 10 9 10 11 13 13 12 13 13 14 15 17 16 12 12 12 13 16 16 15 15 17 16 16 15 14 14 14 13 13 12 12 12 12 11 11 11 10 10 11 11 11 12 13 14 15 15 16 16 17 18 18 19 19 20 20 21 22 22 22 22 22
1 1 2 2 2 3 5 5 4 2 2 6 5 6 8 5 2 2 1 2 1 3 3 3 2 3 3 2 4 4 10 13 12 14 13 11 10 10 10 12 13 12 11 12 12 13 15 15 12 12 13 13 14 12 11 14 16 16 16 16 15 15 14 14 13 13 13 12 12 12 11 11 11 10 11 11 12 12 13 14 15 15 15 15 16 17 18 19 20 20 20 21 23 24 24 24 23
2 2 2 3 3 3 5 8 5 1 2 7 7 8 8 6 5 3 2 4 2 2 4 4 3 6 6 1 2 5 12 13 13 14 14 13 12 13 12 12 12 12 11 11 12 12 13 13 12 13 13 13 13 11 12 14 17 17 17 16 15 15 15 14 14 14 14 13 13 12 12 11 11 11 11 12 13 13 13 13 14 15 14 15 16 16 18 19 20 21 21 22 23 25 26 26 24
0 1 2 3 3 2 3 6 6 0 1 7 7 5 5 4 5 5 5 5 4 6 6 5 7 9 9 6 4 7 12 13 14 16 16 16 16 15 14 13 14 15 14 13 14 14 14 13 12 12 13 13 14 14 15 14 13 16 17 16 16 16 16 15 15 14 14 14 13 12 11 11 11 12 12 12 14 14 14 14 14 14 14 15 16 17 18 20 21 22 22 23 25 26 27 27 26
0 1 3 2 2 2 1 4 5 0 1 6 8 4 3 2 4 5 5 4 5 9 8 6 9 11 11 9 8 10 12 13 15 16 16 17 17 16 15 15 17 17 16 16 17 16 15 14 14 14 13 14 15 16 18 14 11 13 15 16 17 17 17 17 16 15 15 14 13 13 12 11 11 12 13 13 13 15 16 15 14 14 15 15 16 18 19 20 21 22 22 23 24 25 26 26 25
1 1 1 3 1 2 2 2 2 1 2 3 6 5 4 2 3 4 5 5 6 10 10 9 11 11 8 9 10 11 13 14 16 16 16 17 18 17 15 15 16 16 19 20 19 18 17 16 16 15 15 15 16 17 18 17 15 15 15 16 17 18 19 18 17 17 16 15 14 13 13 13 12 13 14 14 14 16 18 18 15 16 17 16 16 18 20 20 21 21 21 20 19 18 20 21 21
2 1 2 3 0 1 3 1 1 0 1 2 5 5 4 4 3 5 7 9 7 4 5 8 8 4 2 7 11 11 12 14 16 17 18 18 18 18 16 15 16 19 22 22 20 21 20 19 18 17 17 17 16 16 17 17 17 17 18 18 18 19 18 18 18 18 17 16 16 14 13 14 13 15 17 16 16 16 18 19 18 18 19 19 18 19 21 20 20 21 21 18 16 16 18 20 19
0 2 1 2 0 2 3 1 2 2 2 5 5 3 3 4 5 3 7 14 5 4 3 0 2 2 2 5 10 11 13 14 17 19 19 19 20 20 17 16 18 20 23 22 21 22 22 22 21 20 19 19 18 16 16 16 16 17 19 20 20 20 20 21 20 19 18 16 17 16 15 15 14 16 17 18 18 18 20 19 19 20 20 21 20 19 21 21 21 21 20 19 19 19 19 19 19
0 3 3 2 1 2 1 1 3 2 3 3 1 1 3 6 5 1 6 16 7 3 3 2 2 1 1 5 10 12 13 15 17 18 17 17 17 17 18 19 20 21 23 24 24 23 23 24 23 22 22 22 21 19 18 17 17 17 17 19 22 22 23 25 23 21 19 17 17 16 16 16 16 17 17 18 17 18 21 20 20 22 21 21 21 19 20 21 21 21 21 22 22 20 19 19 19
1 4 4 2 1 1 1 1 3 2 2 1 1 4 3 2 1 1 10 15 7 2 2 1 0 2 4 7 10 11 12 14 15 14 14 14 14 16 19 22 23 24 25 25 26 25 25 26 26 25 25 24 23 24 22 17 16 18 16 17 21 23 23 22 22 20 19 18 16 16 16 16 16 18 17 17 17 17 20 21 22 25 23 22 21 20 20 20 21 22 22 24 24 21 20 20 19
2 3 3 3 2 1 2 2 3 2 1 2 4 4 1 0 1 6 14 9 0 2 1 1 2 4 7 7 9 10 11 13 14 13 13 13 14 17 20 22 23 25 24 22 25 25 25 26 25 25 25 24 23 25 24 17 14 17 17 17 17 21 22 19 20 19 19 18 16 17 18 17 16 18 18 17 17 17 19 22 24 26 24 24 23 22 22 21 22 23 23 24 24 23 23 21 20
3 4 4 4 2 1 1 2 3 0 1 1 5 2 1 1 1 7 6 1 3 2 4 2 4 7 8 7 7 9 10 12 12 11 11 11 15 18 18 22 24 23 22 20 22 22 23 23 22 22 23 24 23 24 25 19 17 16 16 20 17 18 20 18 19 19 18 18 19 20 19 17 16 16 17 17 17 17 19 23 25 25 25 25 24 24 23 22 23 24 24 23 23 25 25 23 22
2 2 4 4 2 2 1 1 2 1 1 1 3 2 2 2 5 9 2 3 0 3 5 4 6 7 7 7 6 7 9 11 10 10 14 15 16 18 19 22 25 24 22 22 21 21 21 20 20 20 21 23 23 25 25 20 19 18 18 22 21 20 20 19 19 18 17 18 21 23 21 18 18 17 18 19 18 17 20 24 26 26 26 25 24 24 25 24 24 25 24 22 23 25 26 25 23
2 1 2 2 0 2 2 1 1 2 1 1 1 4 7 8 13 10 4 3 1 1 6 6 7 7 6 6 5 7 9 9 10 13 17 16 15 18 20 22 25 24 22 22 22 21 21 20 20 19 18 19 20 24 24 18 18 19 20 22 22 23 23 22 22 20 19 21 23 25 23 20 19 19 20 20 18 18 21 26 28 26 25 25 25 25 25 25 25 25 24 23 23 25 26 26 24
2 1 1 1 3 2 2 2 1 2 1 1 2 5 6 10 16 7 6 2 1 4 8 6 7 6 5 6 6 7 8 10 13 15 16 14 14 18 21 22 25 24 20 22 23 21 20 20 19 17 16 15 15 19 19 17 18 19 21 22 21 24 25 25 25 24 23 23 24 24 23 21 20 20 21 20 19 20 22 26 26 25 24 24 25 25 25 26 26 26 25 24 25 26 27 25 24
1 1 1 0 3 1 3 2 1 3 2 1 3 6 5 6 8 2 4 0 3 8 10 8 7 5 5 6 6 8 9 11 15 15 15 16 18 21 22 21 24 25 22 22 22 20 19 19 18 15 13 11 12 15 16 18 20 21 22 21 19 21 22 22 25 26 24 21 23 23 21 20 19 19 21 21 21 23 24 25 23 23 24 23 24 25 26 26 27 28 27 25 26 27 27 26 24
2 2 2 1 2 1 3 2 1 2 1 2 5 5 6 7 3 4 3 1 3 8 10 8 8 7 7 6 7 8 8 11 14 15 15 18 22 24 24 23 24 25 23 22 21 20 18 18 17 13 11 10 12 15 17 19 20 20 22 22 21 20 19 20 22 25 25 22 21 21 20 19 18 19 20 21 22 24 25 24 22 23 25 24 25 26 26 27 28 28 28 26 26 27 27 26 26
1 2 2 2 3 2 1 2 0 2 1 4 6 5 4 3 1 3 2 2 3 6 9 9 9 8 8 7 7 7 8 9 12 16 17 19 24 26 26 25 24 25 24 22 21 20 18 17 16 12 11 12 15 17 18 20 20 20 21 22 22 20 19 20 21 23 23 21 21 21 21 19 18 19 19 20 21 23 22 22 21 22 25 24 25 27 27 28 29 28 29 26 25 26 27 28 27
2 1 2 1 2 2 1 2 2 1 2 5 7 8 10 7 2 2 3 4 3 7 10 11 9 7 7 6 6 8 8 9 11 15 19 23 27 28 27 26 24 24 24 23 22 20 17 18 17 13 13 14 16 18 19 21 21 20 20 19 19 20 20 21 22 22 21 23 24 24 22 20 20 20 21 21 21 22 20 20 19 20 24 24 25 28 29 30 30 29 29 27 25 26 28 29 28
3 4 3 1 3 4 3 1 1 1 3 6 7 9 15 14 10 10 8 6 6 11 11 12 11 9 8 6 8 9 9 10 12 12 16 22 26 28 28 27 25 24 24 24 22 20 18 19 18 16 17 16 17 19 20 22 23 22 21 19 18 20 20 20 21 21 22 25 27 26 23 21 22 22 22 22 22 21 19 19 20 23 26 26 27 30 31 32 32 29 27 27 28 27 28 30 29
3 3 2 2 3 4 3 1 1 0 3 7 10 12 16 16 12 13 12 7 8 12 12 11 11 9 9 9 9 9 10 12 10 8 11 18 23 27 28 27 26 25 24 23 21 21 20 20 20 20 20 19 19 21 21 23 25 24 24 22 21 20 19 18 19 22 24 26 27 26 22 23 24 23 23 23 22 21 20 20 22 24 27 29 30 32 32 32 31 29 28 29 30 30 30 30 30
4 3 1 1 3 4 1 2 2 1 4 8 8 11 17 18 14 13 12 9 9 13 13 13 12 9 9 11 12 12 13 10 6 6 10 15 20 24 26 26 26 24 23 22 22 22 20 21 22 22 23 23 22 24 24 25 27 26 24 25 24 21 20 20 21 24 25 26 25 23 23 25 24 22 23 24 23 22 21 22 22 24 29 31 32 33 33 31 29 28 29 30 31 33 33 31 31
2 2 1 1 3 5 1 3 1 2 2 6 4 9 16 18 16 14 11 10 14 15 15 15 14 11 10 12 15 13 11 8 6 7 10 13 16 21 23 25 26 25 23 23 23 22 21 22 23 23 25 26 24 25 26 26 28 27 25 26 25 23 23 24 23 23 24 25 24 24 25 25 23 21 24 24 23 23 22 23 24 26 30 32 32 32 31 30 29 29 32 33 32 34 33 33 33
1 1 1 2 2 3 1 3 2 2 3 6 5 8 14 17 17 17 15 14 16 16 16 15 12 11 12 13 14 12 10 9 9 10 11 13 15 18 20 22 24 24 23 23 22 21 21 23 24 24 28 28 27 26 26 27 28 27 27 26 25 25 25 25 23 23 25 26 26 26 24 23 23 23 24 23 23 22 22 23 26 29 32 32 30 31 30 31 32 32 35 36 34 32 32 34 30
3 2 3 3 0 1 2 1 2 3 3 5 7 8 12 15 16 17 17 14 15 16 15 14 12 13 16 15 12 11 13 12 11 10 10 12 14 17 19 21 22 23 21 22 23 23 23 24 24 26 29 29 28 28 28 29 29 28 27 26 26 26 26 25 24 23 26 27 27 26 23 23 25 25 23 22 23 22 21 24 28 30 31 30 29 31 33 34 35 36 37 38 37 33 30 32 27
3 5 6 4 3 3 3 2 2 3 3 2 7 9 9 9 10 12 9 5 10 12 11 12 13 14 15 14 14 14 15 14 12 10 9 11 14 17 19 20 21 22 22 24 25 24 23 23 24 27 30 29 30 30 29 30 30 29 27 25 25 24 23 24 25 25 27 28 27 25 24 25 26 25 23 21 23 23 21 25 29 29 30 30 32 33 34 36 37 38 38 38 38 35 32 30 25
3 6 9 9 6 3 1 3 4 4 2 1 3 7 5 2 5 9 4 3 9 7 7 12 13 11 11 12 14 13 13 13 13 11 8 10 14 16 18 20 21 23 24 24 25 23 21 20 22 27 30 30 31 32 31 31 31 30 27 27 26 25 24 26 27 28 29 28 27 26 25 26 26 26 23 21 23 24 23 25 28 29 30 31 33 34 35 38 38 39 39 37 36 35 34 32 25
3 2 6 9 5 1 2 1 2 4 3 1 1 5 6 3 8 12 8 7 11 8 8 13 12 9 10 11 11 10 10 10 9 9 8 9 13 15 17 21 23 24 23 21 21 21 20 20 22 28 31 31 33 34 33 32 32 31 29 30 31 30 29 28 29 30 29 29 27 26 26 27 26 24 23 22 24 26 26 26 26 29 31 32 34 36 37 38 39 40 39 37 35 32 33 33 27
1 1 1 5 5 4 4 2 3 3 4 2 4 3 7 8 8 9 9 10 12 13 14 15 10 9 10 11 11 11 9 7 5 7 9 10 13 16 18 20 22 21 20 20 21 21 21 21 23 29 32 32 34 35 34 34 34 32 31 32 32 32 31 30 30 29 29 29 28 27 28 29 27 24 23 24 25 27 27 27 27 29 30 32 35 36 38 38 39 40 38 37 34 31 30 29 28
1 1 1 3 3 3 3 2 2 1 4 5 4 5 5 9 3 2 2 7 9 14 17 15 7 4 7 9 9 8 6 5 5 7 8 9 12 15 17 18 19 20 19 21 23 22 22 23 23 29 32 33 35 35 34 35 34 33 32 33 31 29 29 30 31 31 30 30 29 28 30 30 27 25 24 25 26 27 28 28 29 29 30 33 35 36 38 38 38 39 38 36 33 30 28 25 27
2 5 5 6 5 4 3 1 1 2 5 5 6 8 5 10 5 5 2 4 9 13 13 11 5 2 5 6 5 5 3 3 4 5 6 7 9 12 14 15 17 19 19 20 22 21 23 24 24 27 30 32 35 35 35 35 34 33 33 33 31 28 28 29 31 31 32 32 30 30 31 31 28 27 27 27 27 29 29 29 29 30 31 33 35 36 37 37 37 38 37 35 32 29 28 25 25
7 7 6 6 5 3 3 1 1 1 7 3 8 11 6 8 5 7 6 4 6 9 9 7 3 2 4 3 2 2 1 1 2 3 4 3 4 7 10 13 15 17 17 19 21 21 23 25 24 25 27 30 34 35 36 36 35 35 34 33 32 31 31 31 32 32 33 33 31 31 32 31 28 28 29 29 30 31 31 30 30 31 32 33 34 35 36 37 37 37 35 33 31 28 27 25 23
4 4 4 4 2 1 2 1 2 5 7 1 4 5 6 8 6 4 3 2 3 7 7 7 6 3 3 1 0 1 1 1 1 1 2 2 3 6 9 12 15 17 18 20 21 21 23 25 25 25 26 29 34 35 36 37 37 36 35 33 32 33 34 34 34 35 36 34 33 33 33 32 30 30 31 31 32 33 32 32 32 32 33 34 34 35 36 37 36 35 33 31 29 26 24 23 22
2 3 5 4 2 2 3 3 3 5 5 1 1 1 5 11 9 5 9 10 10 10 7 8 8 7 7 2 0 1 0 1 2 2 3 3 4 7 10 13 15 18 20 22 23 23 24 25 26 28 26 28 34 36 37 38 38 37 36 33 32 33 35 34 34 36 37 36 34 35 35 33 32 32 33 34 35 34 33 33 33 34 34 34 34 34 35 35 34 33 31 28 26 23 22 21 20
7 7 7 6 5 4 6 3 1 4 3 2 2 2 5 11 9 10 17 16 14 12 9 8 8 11 11 6 3 4 2 2 2 3 3 4 5 8 11 13 15 17 19 21 23 25 25 25 27 29 27 29 34 36 37 39 39 38 37 35 33 34 34 33 34 36 38 37 35 36 36 35 34 34 35 36 36 35 35 34 34 34 33 33 33 33 33 33 32 30 28 26 23 21 19 18 19
7 4 3 5 5 5 5 3 2 4 0 2 1 2 6 7 2 3 9 9 8 8 7 6 7 11 10 8 8 7 5 4 3 4 5 6 8 9 11 13 15 17 19 22 23 25 26 25 27 30 28 30 34 35 37 39 39 38 37 35 34 34 33 33 34 35 37 37 37 37 37 37 36 36 37 37 36 36 36 35 34 32 32 31 31 31 31 30 29 27 25 23 21 20 18 18 18
3 1 1 5 4 2 1 1 1 0 1 2 3 4 7 6 5 5 6 7 6 4 5 5 9 11 8 8 10 5 4 6 6 6 7 7 9 10 11 12 14 16 19 22 23 24 26 25 27 29 28 29 34 35 36 38 39 38 37 36 35 34 33 33 34 34 35 37 37 37 37 37 37 38 38 38 37 36 36 34 32 31 30 29 29 29 29 28 27 25 24 22 21 20 19 18 18
4 4 4 3 1 1 2 1 3 2 5 5 4 6 8 7 10 9 9 11 9 4 5 7 9 10 6 8 9 2 4 6 6 6 7 7 8 10 11 12 14 16 18 21 22 24 26 25 26 29 28 28 33 36 35 37 38 37 37 37 36 36 35 35 35 36 36 36 36 38 38 37 38 38 39 38 37 36 35 33 32 30 29 29 28 28 28 27 26 25 23 22 21 20 19 18 18
4 4 5 2 2 1 2 4 1 3 7 4 3 8 8 6 7 1 4 8 10 9 10 10 10 10 8 10 9 3 4 5 6 7 7 5 7 10 12 13 14 17 18 20 22 23 25 25 25 28 29 28 33 36 36 37 38 37 38 37 37 37 36 36 36 36 37 36 35 37 38 37 37 38 39 39 38 36 34 32 31 30 29 29 29 29 28 27 26 24 23 22 21 21 20 18 18
1 1 2 2 2 4 4 5 4 5 6 3 4 7 7 9 8 3 4 7 8 10 10 10 11 10 9 11 8 3 3 4 5 6 6 5 8 10 12 14 14 16 17 18 20 21 23 24 24 27 28 28 33 36 35 37 38 38 38 38 37 37 36 36 36 36 37 36 36 37 38 38 38 38 39 39 39 37 34 33 31 31 30 30 29 29 27 27 26 25 24 23 22 21 20 19 18
2 1 2 1 2 3 3 3 2 5 5 4 4 4 7 10 7 7 12 12 11 11 9 8 10 10 9 8 5 1 3 5 5 5 5 5 8 10 13 14 15 16 17 17 19 19 20 22 23 26 26 26 31 34 32 34 37 38 38 38 37 37 37 37 36 37 37 36 36 37 38 38 38 39 40 40 39 37 35 34 32 32 31 31 30 29 28 27 26 25 25 24 23 22 21 20 19
6 6 6 5 2 0 2 2 1 3 4 4 3 5 10 8 4 8 13 11 11 10 8 8 8 8 8 5 2 2 4 5 4 3 3 4 6 9 11 13 14 15 16 16 18 19 21 21 22 25 26 25 28 34 34 34 35 37 38 39 38 38 37 36 37 38 37 36 36 37 37 38 39 40 41 40 39 38 36 35 33 32 32 31 30 29 28 28 27 26 25 24 23 22 21 20 19
8 9 10 10 8 5 4 5 2 0 3 3 2 6 12 6 3 6 9 8 8 9 8 8 6 8 7 2 3 5 5 5 2 1 2 2 4 7 9 11 13 15 16 18 18 19 21 22 22 23 26 28 30 34 36 36 35 36 38 39 39 39 38 37 38 38 37 36 37 37 37 38 39 40 41 41 40 38 37 35 34 33 32 31 30 30 29 28 27 26 25 24 23 23 22 21 20
Wind_Direction
334 167 179 178 173 173 99 307 230 75 306 73 91 146 128 77 9 215 169 153 182 129 146 99 130 143 134 18 37 45 27 299 339 333 26 76 124 136 147 157 158 160 156 157 158 156 149 145 142 143 147 144 149 143 135 136 133 129 124 121 118 115 114 110 106 103 100 98 94 90 86 85 83 78 74 71 69 67 65 65 65 67 72 73 73 76 79 83 86 87 88 88 88 86 83 82 81
298 167 164 159 178 232 153 302 279 96 272 111 126 88 101 133 205 193 171 170 69 80 133 136 139 141 58 38 55 124 111 32 12 26 63 105 134 134 150 148 157 160 157 159 157 158 153 151 148 147 152 145 151 149 137 138 136 130 126 123 123 123 121 115 110 107 103 100 95 91 88 87 85 79 76 73 70 69 68 68 69 72 75 76 76 78 80 82 86 88 87 87 87 87 86 85 82
198 169 162 144 126 248 129 247 293 118 281 54 120 118 122 171 182 165 121 77 82 98 135 126 142 156 232 213 193 243 113 85 87 108 108 144 148 140 153 148 156 159 162 162 158 162 155 155 150 149 156 145 147 148 139 139 135 131 128 127 126 127 128 120 113 111 106 102 97 93 91 90 87 81 78 76 72 70 70 71 73 76 79 79 79 80 81 84 87 88 88 86 84 84 83 79 77
202 192 204 227 192 151 140 40 27 287 359 36 89 129 158 181 158 112 88 101 106 125 138 148 166 95 267 245 146 211 106 108 135 137 136 155 150 139 156 156 157 161 167 165 161 161 156 158 152 151 157 147 147 147 142 140 137 135 132 131 127 130 133 124 117 116 109 105 101 96 94 93 89 82 80 78 74 71 71 74 76 79 81 81 81 82 84 86 88 88 90 91 88 87 84 81 80
144 191 225 244 236 76 68 89 118 283 35 34 17 131 171 171 143 121 118 135 139 205 68 211 187 90 272 292 29 243 111 111 136 190 134 124 141 158 166 160 158 166 169 167 165 162 163 161 154 153 157 153 150 149 149 146 144 143 139 134 127 135 137 127 124 120 111 108 104 100 96 96 92 85 83 79 75 73 72 76 80 81 83 84 84 85 87 88 89 88 88 89 90 90 89 87 85
106 106 99 101 95 32 183 132 148 79 41 350 7 124 163 159 147 137 140 163 189 253 274 277 289 144 191 113 294 317 74 118 134 159 145 128 161 167 166 162 163 171 170 169 167 163 167 164 158 156 158 157 153 155 154 152 152 149 143 138 132 139 139 132 131 123 115 112 108 106 101 100 96 89 86 81 78 76 75 79 84 86 86 86 86 87 88 89 90 89 87 86 88 89 91 91 89
164 120 76 87 108 307 213 91 94 104 62 348 2 101 151 153 147 145 156 183 197 216 226 244 286 231 159 122 201 127 23 36 116 156 160 152 160 155 159 162 164 172 173 171 170 169 171 167 163 161 161 161 157 159 157 157 157 153 147 140 142 145 138 134 134 128 122 119 113 110 108 107 102 94 89 84 82 80 78 81 86 88 89 89 89 89 90 90 90 90 90 90 91 93 94 93 89
281 153 312 153 113 357 146 100 73 63 60 331 323 32 127 142 157 167 169 188 191 174 200 180 215 251 115 145 189 132 194 208 171 174 163 157 155 151 156 161 166 175 177 173 175 173 173 173 170 165 165 166 162 161 159 162 160 156 151 142 146 145 139 133 135 135 131 125 118 115 114 113 106 97 91 86 85 82 81 83 87 89 90 91 91 92 92 92 92 92 92 95 98 98 96 93 91
32 36 232 185 122 88 120 106 101 56 67 212 259 243 300 148 176 192 180 197 241 175 188 154 202 276 116 180 124 121 193 195 183 172 159 158 155 158 158 164 170 176 178 176 179 177 177 181 178 168 167 170 166 165 164 166 165 161 157 150 145 141 139 133 134 139 138 131 124 122 119 118 110 100 93 89 87 85 84 86 90 93 93 94 94 95 95 94 94 94 95 98 100 99 99 97 96
30 22 185 140 148 151 135 165 133 105 136 212 265 205 187 169 191 210 196 203 199 184 150 112 225 269 134 176 132 122 177 172 175 166 159 159 156 164 163 168 170 174 182 178 179 182 183 185 184 175 169 172 172 170 169 170 170 167 164 159 153 147 143 137 134 137 140 137 131 130 127 125 117 107 99 93 91 89 89 89 93 95 96 97 98 98 98 97 96 95 96 98 99 99 100 101 101
119 60 260 157 165 180 167 171 149 130 126 276 246 194 178 173 189 192 209 220 182 200 146 162 223 207 195 190 138 115 155 166 175 175 168 165 159 165 169 171 167 170 182 178 181 189 187 184 187 184 175 175 178 177 173 173 174 173 172 168 163 159 154 147 142 138 141 141 137 136 135 132 124 115 108 100 95 94 95 95 96 96 96 98 99 100 100 100 98 97 97 97 97 97 98 100 101
183 129 212 183 168 186 146 160 157 138 144 230 192 165 164 176 192 190 204 214 180 204 185 189 215 170 199 196 129 123 156 171 178 184 174 169 166 168 171 173 174 177 180 175 181 188 186 181 179 183 184 182 181 181 179 177 179 180 179 178 174 169 163 158 152 144 142 143 141 140 140 136 130 123 115 108 101 99 101 102 101 100 100 100 100 101 101 101 100 98 97 96 95 94 94 95 98
167 156 194 172 55 104 135 155 139 132 194 210 177 139 156 179 199 204 192 193 183 198 196 180 130 263 236 108 116 142 169 174 176 183 172 168 171 170 170 174 181 188 191 185 184 180 177 180 178 182 189 189 186 185 185 182 182 184 184 184 183 177 172 166 160 152 148 147 145 145 146 142 138 130 123 116 108 106 108 109 107 105 105 104 104 103 103 102 100 99 98 96 95 94 93 93 95
125 159 208 147 72 144 144 122 147 201 199 168 140 128 168 195 216 219 187 205 200 183 113 126 129 232 237 162 153 161 169 168 174 176 167 169 172 171 170 173 174 181 191 188 187 187 178 179 186 191 192 192 192 190 190 191 188 187 187 188 188 184 181 175 167 162 157 155 154 153 151 148 145 138 132 124 116 113 114 115 113 110 109 107 107 106 104 102 100 99 98 97 96 95 93 93 95
143 137 64 121 137 162 176 253 162 213 192 148 145 140 176 225 292 208 211 225 192 98 73 150 243 251 231 205 148 112 151 163 171 169 166 172 173 174 173 179 183 185 190 185 191 199 191 186 191 191 194 195 194 195 195 198 197 190 190 192 192 191 186 182 176 172 168 163 161 161 157 152 150 147 139 131 124 121 121 122 119 116 113 111 110 108 105 102 99 98 97 97 97 96 95 95 96
48 142 106 137 158 184 188 195 152 213 187 140 134 148 181 174 190 218 246 295 113 110 210 179 196 271 320 360 80 84 145 162 165 162 164 170 170 175 177 186 193 194 192 191 198 201 196 199 202 194 197 200 196 199 194 196 201 196 196 195 197 196 190 187 185 181 177 172 168 167 164 156 154 153 146 138 133 130 129 130 127 122 118 114 112 109 107 103 100 98 97 97 97 97 97 98 99
260 198 167 172 176 193 178 175 171 191 162 139 144 181 191 166 169 240 66 278 231 139 220 207 182 253 285 63 84 120 160 165 162 160 164 170 169 173 180 185 189 192 189 192 198 198 199 204 209 203 201 199 192 192 190 194 201 201 201 199 200 199 193 191 191 189 184 178 175 172 168 163 161 159 152 146 142 138 137 137 134 128 122 118 114 112 109 104 102 101 100 99 98 98 97 98 100
246 190 186 200 172 176 174 178 176 136 174 165 168 191 202 181 164 169 174 207 209 189 214 217 235 242 238 191 106 150 166 168 166 171 174 175 178 179 184 186 187 190 187 190 197 197 201 204 206 202 200 201 194 193 202 200 199 203 206 205 203 200 196 195 195 194 190 183 178 178 176 172 168 164 161 155 151 146 143 144 139 132 127 122 117 114 110 106 105 103 102 102 100 99 97 98 99
237 128 209 213 156 141 166 174 164 204 203 158 162 190 213 197 157 160 209 200 184 225 218 207 240 238 220 200 175 155 165 174 176 185 187 185 187 187 186 187 190 192 188 188 195 196 196 200 203 201 200 207 202 203 215 210 202 205 204 204 205 203 201 200 199 196 196 191 184 186 184 178 175 172 170 163 158 152 149 151 145 138 132 126 122 117 113 109 106 105 104 103 100 97 95 96 98
128 195 222 186 125 118 157 180 156 260 304 160 158 165 216 200 142 162 216 211 191 228 224 205 228 234 216 182 165 164 170 181 187 195 197 194 193 193 191 189 192 194 192 189 192 194 194 196 199 201 200 203 200 204 219 219 212 212 207 209 207 204 205 202 201 199 200 198 190 192 188 183 183 178 173 169 167 160 154 156 152 145 138 133 129 122 118 114 109 107 106 104 100 95 93 93 94
141 241 248 78 107 133 133 188 137 24 317 180 149 148 199 159 145 190 201 216 222 232 230 225 233 234 210 169 164 173 178 185 193 201 203 200 197 198 198 195 194 194 197 196 197 198 199 199 198 203 205 207 205 206 217 218 213 214 216 219 214 208 208 203 203 203 202 199 196 198 191 187 188 182 176 176 177 170 163 160 159 153 145 140 136 129 125 120 115 112 110 106 101 96 96 94 94
119 47 7 68 163 95 99 155 124 151 328 172 157 166 179 127 180 214 207 225 235 237 223 230 245 258 172 167 171 175 186 192 196 204 206 203 199 200 200 196 195 196 199 200 202 203 204 206 205 208 211 215 218 212 212 214 212 215 218 223 220 215 213 211 209 207 203 198 198 201 194 191 192 186 180 180 183 180 174 168 166 164 156 149 144 138 133 130 125 123 119 112 108 105 101 98 96
129 100 81 110 15 43 90 121 147 189 200 174 173 167 137 156 209 216 223 235 236 64 69 329 317 12 48 168 171 179 194 198 201 205 206 205 203 203 201 197 197 197 200 203 208 209 209 213 216 216 216 217 222 220 214 212 214 214 216 220 220 217 216 216 214 209 207 202 203 207 199 194 196 191 187 188 187 184 183 179 172 172 167 157 152 147 144 141 138 135 129 123 120 113 104 98 98
313 121 133 151 46 15 52 105 150 191 215 169 119 163 169 203 218 84 237 243 238 101 88 41 10 46 198 181 182 196 202 203 209 210 207 208 208 205 206 205 204 203 204 207 212 215 216 219 224 226 228 226 224 224 219 216 217 216 214 215 218 219 215 214 211 207 211 209 208 213 204 195 195 191 191 194 193 188 185 184 178 177 176 166 160 157 151 148 146 143 136 130 125 117 108 104 104
55 118 135 146 107 26 76 142 159 185 232 135 173 190 187 229 250 301 249 248 240 155 119 116 104 172 200 206 203 206 208 211 214 214 211 213 212 210 213 213 212 211 211 213 216 220 222 224 228 231 235 234 230 225 220 218 221 222 223 218 215 215 212 210 207 203 208 211 214 216 205 196 195 193 193 197 200 198 191 187 180 178 178 170 164 161 155 153 151 146 139 134 129 122 117 114 111
58 102 125 131 109 84 128 161 150 187 197 157 207 188 146 316 360 263 248 252 359 118 188 167 200 212 211 213 213 211 213 217 215 215 215 215 216 216 217 216 215 215 214 216 218 222 226 227 229 231 232 232 231 224 218 216 219 222 227 228 218 207 205 206 206 205 203 206 218 222 209 201 203 200 197 199 202 205 199 192 184 180 178 171 166 163 159 159 155 148 143 139 133 127 125 122 117
74 96 108 96 85 93 128 156 116 208 140 170 233 196 143 160 255 252 237 344 36 194 210 191 221 230 224 218 219 219 221 222 216 213 213 212 215 216 216 216 215 215 212 213 216 219 223 226 227 228 229 229 229 224 216 215 219 220 224 228 225 209 206 208 208 208 205 209 219 221 213 204 207 207 204 206 207 208 203 194 190 185 180 174 170 165 161 162 159 153 148 144 137 131 129 125 120
64 119 139 81 60 119 95 133 92 305 157 168 259 241 236 142 230 246 162 76 358 213 217 208 227 235 232 227 224 224 228 227 215 213 216 212 213 212 212 214 215 214 213 214 216 218 222 226 229 233 236 235 233 226 217 216 219 219 221 226 227 217 214 216 211 209 213 219 218 214 208 199 204 210 210 215 212 204 200 194 191 187 181 177 176 173 168 165 162 155 151 147 141 136 132 128 124
74 113 174 93 253 170 126 106 62 284 175 142 249 254 238 200 228 239 116 108 147 230 240 224 229 236 234 232 231 230 228 224 216 220 223 218 215 214 213 216 216 214 215 218 219 223 226 230 234 239 243 241 235 224 215 215 217 217 220 225 227 219 216 220 218 218 223 223 218 213 209 205 210 214 213 217 210 199 196 193 190 186 181 180 179 178 171 165 162 156 152 150 145 139 134 129 127
127 64 328 130 234 202 113 67 36 234 162 96 246 262 238 206 228 229 94 112 246 259 250 236 232 233 234 232 235 238 227 219 222 225 223 219 219 219 219 219 219 216 216 221 223 226 229 233 237 239 239 235 226 214 206 211 214 213 218 223 223 220 220 222 220 224 228 221 213 211 210 211 214 215 214 211 202 196 193 190 188 184 181 180 176 173 168 164 164 159 155 152 145 140 135 131 130
110 112 298 193 243 170 96 74 211 207 159 130 227 255 258 224 224 155 74 193 235 258 255 246 239 229 235 235 236 243 232 223 227 229 223 222 224 225 223 221 222 219 217 223 225 226 230 236 238 233 229 220 208 202 199 208 210 211 217 218 215 214 218 221 221 224 222 207 200 201 201 205 208 212 215 208 197 194 190 186 187 185 179 176 172 171 169 166 165 160 157 154 146 141 136 133 133
59 231 191 132 240 193 94 95 231 233 114 172 219 249 265 261 250 81 51 168 190 250 258 254 249 242 239 236 238 245 242 232 231 233 227 226 228 228 225 223 223 221 218 221 224 225 229 236 234 223 215 206 199 200 202 205 206 212 217 214 210 208 211 219 220 214 206 196 196 198 197 201 207 208 208 205 195 189 184 179 182 182 174 171 170 171 170 168 167 162 158 157 149 143 138 135 134
80 261 217 154 218 250 97 117 50 312 65 206 228 262 271 259 4 80 110 166 184 250 265 260 251 247 245 242 241 243 247 239 233 232 224 224 228 228 226 223 222 220 217 218 222 224 225 232 229 210 201 201 201 203 204 203 204 213 216 209 207 208 211 214 212 206 202 203 205 202 201 205 206 199 194 194 190 183 179 173 172 173 169 168 171 171 171 169 167 163 157 156 153 148 142 136 134
180 220 247 210 218 251 256 140 105 316 253 226 227 250 258 252 264 250 192 164 210 252 262 264 257 247 244 243 242 245 244 239 236 228 219 222 227 227 226 223 220 218 217 217 221 223 221 224 221 204 202 204 202 202 202 202 202 210 210 203 207 211 212 212 213 214 211 210 208 204 205 204 199 191 187 188 187 181 179 175 172 175 173 171 172 172 171 168 166 164 158 155 153 151 145 139 137
180 188 216 214 217 229 259 258 123 183 232 237 232 246 259 258 253 258 247 200 229 257 258 262 261 253 251 247 245 245 241 241 239 222 214 223 226 225 223 221 218 215 215 217 218 218 215 217 214 204 205 204 202 201 202 201 200 206 208 204 208 210 210 214 217 215 210 206 202 200 203 201 195 189 189 189 186 181 179 180 179 181 179 173 172 172 170 168 165 164 161 156 152 151 149 144 140
136 162 194 194 234 237 238 257 58 273 254 250 247 255 267 267 258 259 260 228 230 256 259 259 257 251 252 249 248 245 241 244 237 208 210 222 224 224 221 217 215 212 213 213 211 211 208 209 208 203 203 201 200 199 200 201 198 202 207 204 204 204 206 214 214 205 200 199 197 199 201 198 193 190 190 187 183 181 178 179 179 180 179 174 174 174 172 171 168 166 165 162 157 151 148 146 142
102 123 164 194 256 265 195 111 56 36 269 260 249 263 273 275 271 263 263 256 250 254 252 253 249 243 245 246 248 244 242 244 232 211 217 221 223 222 218 214 211 208 208 206 205 206 202 202 202 200 199 198 200 199 198 200 196 195 198 197 199 201 202 204 201 197 194 195 199 203 198 192 192 192 189 184 183 183 178 177 179 179 180 177 176 176 175 174 174 173 168 163 161 152 146 145 145
97 169 239 227 247 264 138 89 48 111 252 268 266 276 275 275 278 270 260 255 258 257 249 250 249 242 242 245 248 246 244 244 229 220 209 206 213 213 211 209 206 203 202 201 201 201 199 200 200 199 199 197 200 200 199 199 196 193 193 195 200 199 198 198 198 201 200 198 200 199 192 189 191 188 184 184 186 184 179 180 182 181 181 179 177 178 179 179 179 180 170 160 158 155 150 149 148
134 153 244 256 256 277 298 82 53 142 227 275 294 285 276 276 278 273 261 249 253 255 249 254 257 253 248 245 248 249 248 245 229 218 200 194 200 201 203 204 204 203 199 198 198 197 198 199 199 202 202 198 198 201 202 202 199 199 200 201 203 200 199 200 203 207 203 198 195 191 189 189 187 184 183 184 185 183 183 185 185 184 185 183 183 184 184 183 181 179 172 163 158 155 154 155 155
198 180 215 246 335 290 263 85 86 171 219 297 304 289 276 274 273 267 259 248 252 256 253 256 254 251 253 251 253 253 251 250 236 218 195 186 190 193 200 201 201 201 197 197 197 196 198 198 199 203 203 199 199 201 203 205 203 202 204 203 202 200 200 201 200 200 198 195 190 187 189 189 184 183 183 185 186 186 188 190 189 190 191 191 191 189 185 183 181 176 174 170 164 158 158 164 166
206 214 222 235 228 225 251 351 354 209 201 286 294 287 269 256 260 264 264 255 262 260 254 257 247 242 251 258 259 253 250 251 245 228 189 179 192 196 200 200 198 198 198 198 196 196 197 196 199 203 203 201 201 201 202 203 201 197 196 193 192 193 194 193 191 191 191 191 187 185 188 188 185 182 183 187 191 191 193 197 197 198 199 197 194 191 187 184 181 179 178 176 173 168 165 172 176
217 219 221 234 245 231 212 358 335 272 242 161 297 293 268 203 250 264 280 296 273 252 230 250 247 236 239 249 254 248 244 244 245 243 205 182 194 197 199 198 197 200 202 200 197 196 194 193 198 202 203 203 202 201 202 202 198 196 194 189 186 185 184 187 190 191 190 189 186 184 187 188 186 184 185 192 197 197 200 202 203 203 202 198 194 192 189 185 183 183 183 181 179 176 172 175 180
231 222 222 231 242 233 202 260 293 282 300 175 191 283 280 271 253 254 258 267 275 270 253 256 248 234 234 240 249 245 241 238 236 240 223 197 194 194 199 199 199 203 202 198 195 193 192 192 197 201 202 204 203 202 203 202 200 201 203 199 195 191 188 190 193 194 191 189 187 186 187 187 187 190 194 197 198 202 205 205 204 203 201 198 195 192 190 187 186 186 185 184 183 183 180 178 181
213 64 198 201 190 201 203 192 230 280 326 262 181 226 279 279 247 246 255 256 275 283 274 267 248 230 238 243 249 250 249 244 227 227 222 208 200 197 201 201 201 202 198 193 193 193 194 194 198 202 202 205 205 204 205 204 203 203 203 200 197 195 195 194 193 193 192 190 190 189 188 187 188 195 201 200 199 204 206 204 203 202 201 198 195 194 192 189 189 188 188 187 187 190 189 184 186
357 91 113 138 151 173 159 170 226 330 325 276 175 165 263 280 230 129 276 247 261 272 269 269 262 233 245 248 252 258 262 260 244 234 223 211 204 202 202 200 199 199 193 192 193 192 195 197 199 200 202 205 206 206 206 204 204 204 200 196 194 194 197 195 192 192 193 191 191 192 191 188 189 194 200 202 202 205 205 203 201 202 201 198 195 195 193 192 192 191 190 191 192 193 192 192 194
138 139 101 88 84 73 94 189 190 103 280 262 163 165 247 288 251 135 111 224 235 254 263 271 280 277 261 257 260 269 281 270 255 248 238 220 208 201 198 196 194 194 192 191 191 190 195 199 197 197 200 205 206 207 207 204 204 204 200 196 196 197 197 195 191 191 192 191 191 194 192 190 192 194 199 203 204 203 203 202 201 201 200 197 196 196 195 194 194 193 193 195 196 197 197 199 198
146 145 102 91 85 65 81 42 80 207 262 226 157 176 212 288 268 151 158 202 218 238 256 271 279 273 260 260 272 286 317 281 259 256 250 225 205 195 191 193 191 190 190 190 190 191 198 200 197 198 201 204 206 207 207 205 205 204 201 201 204 203 199 196 193 190 190 189 191 194 194 192 193 194 198 202 203 202 202 201 201 200 198 197 196 196 195 195 195 195 196 198 200 202 204 205 203
157 148 129 128 123 131 141 125 149 228 252 171 141 189 204 246 249 146 167 261 257 241 249 268 281 289 268 277 8 311 360 300 277 257 238 197 186 187 190 194 192 190 189 190 190 193 200 201 199 200 202 204 207 208 207 207 206 206 205 207 208 206 203 199 197 194 192 191 193 195 196 195 193 193 197 201 202 201 200 200 200 198 197 197 197 197 197 197 197 197 198 201 203 206 209 210 211
221 159 161 190 202 201 222 205 183 234 245 57 32 225 221 245 257 277 273 269 259 247 240 257 276 285 272 260 166 208 170 249 253 241 225 205 195 189 192 195 192 192 192 190 190 194 199 199 199 201 201 204 208 209 208 208 209 209 210 210 209 207 206 206 204 200 195 195 196 196 196 196 194 194 198 201 200 199 199 199 198 197 198 199 199 199 199 199 199 199 201 204 206 209 213 214 214
197 178 175 195 195 211 232 200 192 263 251 39 7 176 240 267 275 262 256 256 256 253 246 244 257 270 268 261 239 228 208 218 235 231 222 213 206 196 194 195 194 195 194 191 192 196 199 199 200 202 201 204 208 209 208 209 210 211 212 212 212 210 210 211 210 205 200 199 198 197 196 197 197 198 200 201 200 199 198 198 198 199 199 200 200 200 200 200 200 201 203 204 206 208 208 206 204
196 187 173 203 199 211 230 205 225 259 137 80 301 197 228 254 312 246 253 273 277 265 264 259 257 262 267 275 260 233 213 230 233 225 224 217 210 201 196 196 196 195 192 191 193 198 202 202 201 203 203 204 207 208 208 209 210 210 211 213 214 215 215 215 213 208 203 201 199 197 198 198 199 200 201 202 200 199 198 198 198 199 200 200 200 200 200 199 199 199 199 198 198 196 193 192 191
194 89 181 231 223 195 246 313 202 359 11 197 207 240 241 252 294 271 253 274 269 251 267 267 263 263 264 274 266 223 184 225 225 223 228 217 206 201 199 199 198 196 193 192 195 199 203 203 203 203 204 206 208 209 208 208 210 210 210 212 214 216 218 215 211 208 205 203 202 201 201 201 200 200 201 201 200 199 198 198 197 197 197 197 197 196 195 193 192 191 190 188 188 185 183 184 185
159 164 201 228 332 115 172 247 85 89 267 246 202 247 267 284 282 253 225 245 247 240 260 249 252 262 260 265 265 202 173 220 216 221 228 213 201 200 202 202 199 196 194 194 197 200 203 203 202 204 204 206 208 210 209 208 210 210 210 211 213 215 216 214 212 212 210 206 205 204 203 202 201 200 200 200 200 198 197 196 195 194 193 192 191 190 189 188 187 186 185 183 181 181 181 182 184
136 183 192 141 17 353 204 235 193 187 247 254 211 244 262 266 270 241 157 235 245 244 251 248 250 257 257 260 258 207 196 221 217 224 226 209 201 201 202 204 203 199 195 196 197 199 202 203 203 204 205 205 207 210 211 210 211 211 211 212 214 215 215 215 216 216 212 208 207 206 203 201 200 201 200 199 198 197 195 194 193 191 190 188 187 187 187 186 185 183 182 182 181 181 181 182 184
81 213 175 135 225 209 187 214 222 219 234 247 239 254 261 241 239 246 214 223 234 239 239 240 247 249 248 256 256 213 194 218 222 220 213 204 202 200 200 202 203 201 198 197 197 198 201 203 205 207 208 209 208 209 210 211 212 213 213 214 215 216 216 215 216 215 210 209 209 207 204 202 201 200 200 198 196 195 194 192 192 190 188 187 187 187 186 186 185 184 182 181 182 181 179 180 182
32 268 195 210 261 222 191 187 218 234 227 241 262 270 262 241 215 219 231 223 219 229 230 231 240 242 243 254 271 271 217 223 224 216 202 198 198 197 198 198 198 198 198 197 197 198 199 201 204 207 210 211 209 208 209 210 212 214 214 214 215 216 216 215 215 213 210 210 211 208 207 205 202 200 198 197 196 195 193 192 191 189 188 187 187 187 186 186 185 184 183 181 181 180 180 182 184
179 200 195 189 192 299 272 226 175 253 237 244 269 273 268 259 177 193 218 216 212 218 226 230 232 240 246 253 263 246 244 240 232 226 213 195 195 197 195 195 194 193 195 195 197 200 200 202 203 204 208 210 207 208 210 209 212 214 214 213 215 216 216 214 213 212 211 212 212 209 208 207 204 201 198 197 196 195 194 193 190 190 190 189 189 187 186 187 186 184 183 182 182 181 182 185 187
186 197 197 197 182 157 217 220 168 256 257 235 239 267 269 267 133 188 206 201 209 208 216 232 238 245 251 251 212 204 220 247 263 303 270 221 200 199 193 192 191 190 194 196 197 199 201 203 202 201 206 208 207 209 211 210 211 214 214 214 215 216 215 212 210 211 211 213 211 208 208 207 204 201 198 197 197 195 194 193 191 191 191 191 191 189 188 188 187 186 185 184 185 184 185 189 192